Regional Weather Roundup
Issued by NWS Kansas City/Pleasant Hill, MO

Home | Current Version | Previous Version | Graphics & Text | Print | Product List | Glossary Off
Versions: 1 2 3 4 5 6 7 8 9 10 11 12 13 14 15 16 17 18 19 20 21 22 23 24 25 26 27 28 29 30 31 32 33 34 35 36 37 38 39 40 41 42 43 44 45 46 47 48 49 50

000
ASUS43 KEAX 281610
RWREAX

WEATHER ROUNDUP FOR EASTERN KANSAS AND NORTHWEST MISSOURI
NATIONAL WEATHER SERVICE KANSAS CITY/PLEASANT HILL MO
1000 AM CST FRI NOV 28 2014

KSZ040-057-103>105-MOZ028-029-037-043-281700-
...KANSAS CITY METROPOLITAN AREA...

CITY           SKY/WX    TMP DP  RH WIND       PRES   REMARKS
K.C. INTL      MOSUNNY   45  28  51 SW17      29.95F
K.C. DOWNTOWN  SUNNY     47  27  45 SW15      29.96F
LEES SUMMIT    SUNNY     46  28  49 SW20G28   29.98F
OLATHE - IXD   SUNNY     45  28  51 S20G28    29.97F
OLATHE - OJC   SUNNY     44  28  53 S14G23    29.96F
LAWRENCE       SUNNY     45  27  49 S14       29.96F

$$

MOZ001>008-011>017-020>025-030>033-038>040-044>046-053-054-281700-
...NORTHERN AND CENTRAL MISSOURI...

CITY           SKY/WX    TMP DP  RH WIND       PRES   REMARKS
ST. JOSEPH     SUNNY     42  28  57 SW14      29.94F WCI  35
MOSBY          SUNNY     43  30  61 S12       29.97F
WHITEMAN AFB   SUNNY     46  29  50 SW18G26   30.01F
CLINTON        SUNNY     46  32  57 SW14      30.04F
SEDALIA        SUNNY     47  28  47 SW23G29   30.03F
WARSAW         NOT AVBL
MARSHALL       SUNNY     46  32  57 S16G22    30.02F
CHILLICOTHE      N/A     40  28  62 S12       29.99F WCI  33
KIRKSVILLE     SUNNY     37  28  70 S12       30.00F WCI  29

$$

MOZ041-047>049-056>058-063>065-088>090-097-281700-
...EASTERN AND SOUTHERN MISSOURI...

CITY           SKY/WX    TMP DP  RH WIND       PRES   REMARKS
ST. LOUIS INTL MOSUNNY   39  28  64 S16G24    30.16F WCI  30
SPIRIT OF STL  MOSUNNY   39  29  67 S12G18    30.16F WCI  32
COLUMBIA       SUNNY     44  29  55 S20G26    30.06F
JEFFERSON CITY SUNNY     45  28  51 S12G24    30.08F
MEXICO         SUNNY     43  32  65 S17G24    30.07F WCI  35
ROLLA          SUNNY     42  29  59 S17       30.09F WCI  34
LEBANON        SUNNY     48  28  46 S18G25    30.09F
OSAGE BEACH    SUNNY     46  28  49 S14G21    30.08F
SPRINGFIELD    SUNNY     45  28  51 S23       30.09F
BRANSON        SUNNY     48  30  49 S6        30.16F
JOPLIN         SUNNY     52  29  41 SW23G31   30.07F
WEST PLAINS    SUNNY     40  29  64 S13       30.21F WCI  32

$$

IAZ060-094-KSZ022-034>040-054-083-096-NEZ052-066-093-281700-
...KANSAS...SOUTHEAST NEBRASKA AND IOWA...

CITY           SKY/WX    TMP DP  RH WIND       PRES   REMARKS
TOPEKA         SUNNY     44  27  51 S7G20     29.95F
MANHATTAN      SUNNY     47  30  51 SW12      29.91F
EMPORIA        SUNNY     49  31  49 SW10      29.95F
CHANUTE        SUNNY     47  30  51 S23G30    30.02F
WICHITA        MOSUNNY   49  31  49 S21       29.98F
OMAHA          PTSUNNY   35  25  66 S12       29.86F WCI  27
LINCOLN        MOSUNNY   38  25  59 S7        29.85F WCI  33
FALLS CITY     SUNNY     41  28  60 SW12      29.90F WCI  34
LAMONI         MOSUNNY   36  26  67 S15       29.92F WCI  27
DES MOINES     PTSUNNY   30  23  75 S9        29.94F WCI  22

$$




USA.gov is the U.S. government's official web portal to all federal, state and local government web resources and services.